| time (UTC) | temp F | wind direction | speed MPH | gust MPH | rain 1hr in | rain 24hr in | rain mn in | humidity % | barometer mb |
| 20260831224535 | 69 | 202 | 2.0 | 7.0 | 0.00 | 0.00 | 0.00 | 64 | 1018.0 |
| 20260831223030 | 70 | 186 | 3.0 | 10.0 | 0.00 | 0.00 | 0.00 | 64 | 1018.0 |
| 20260831221529 | 71 | 189 | 6.0 | 10.0 | 0.00 | 0.00 | 0.00 | 64 | 1018.0 |
| 20260831220012 | 71 | 173 | 5.0 | 10.0 | 0.00 | 0.00 | 0.00 | 64 | 1017.9 |
| 20260831214511 | 71 | 175 | 6.0 | 13.0 | 0.00 | 0.00 | 0.00 | 63 | 1017.9 |
| 20260831213102 | 71 | 150 | 5.0 | 14.0 | 0.00 | 0.00 | 0.00 | 64 | 1018.0 |
| 20260831211558 | 72 | 171 | 10.0 | 16.0 | 0.00 | 0.00 | 0.00 | 63 | 1017.9 |
| 20260831210055 | 73 | 167 | 5.0 | 14.0 | 0.00 | 0.00 | 0.00 | 63 | 1018.0 |
| 20260831204556 | 71 | 170 | 6.0 | 11.0 | 0.00 | 0.00 | 0.00 | 67 | 1018.1 |
| 20260831203059 | 70 | 360 | 6.0 | 13.0 | 0.00 | 0.00 | 0.00 | 70 | 1018.2 |
| 20260831201555 | 70 | 139 | 8.0 | 14.0 | 0.00 | 0.00 | 0.00 | 69 | 1018.2 |
| 20260831200046 | 70 | 360 | 7.0 | 13.0 | 0.00 | 0.00 | 0.00 | 69 | 1018.2 |
| 20260831194546 | 69 | 118 | 10.0 | 18.0 | 0.00 | 0.00 | 0.00 | 70 | 1018.2 |
| 20260831193114 | 70 | 117 | 9.0 | 14.0 | 0.00 | 0.00 | 0.00 | 69 | 1018.2 |
| 20260831191534 | 69 | 111 | 8.0 | 12.0 | 0.00 | 0.00 | 0.00 | 69 | 1018.6 |
| 20260831190039 | 69 | 138 | 8.0 | 14.0 | 0.00 | 0.00 | 0.00 | 68 | 1018.7 |
| 20260831184532 | 69 | 139 | 7.0 | 16.0 | 0.00 | 0.00 | 0.00 | 67 | 1019.1 |
| 20260831183032 | 69 | 130 | 9.0 | 14.0 | 0.00 | 0.00 | 0.00 | 65 | 1019.1 |
| 20260831181545 | 69 | 360 | 10.0 | 13.0 | 0.00 | 0.00 | 0.00 | 63 | 1019.2 |
| 20260831180037 | 69 | 141 | 7.0 | 14.0 | 0.00 | 0.00 | 0.00 | 58 | 1019.3 |
| 20260831174530 | 69 | 103 | 10.0 | 14.0 | 0.00 | 0.00 | 0.00 | 60 | 1019.3 |
| 20260831173030 | 69 | 129 | 6.0 | 10.0 | 0.00 | 0.00 | 0.00 | 59 | 1019.4 |
| 20260831171526 | 68 | 360 | 8.0 | 11.0 | 0.00 | 0.00 | 0.00 | 62 | 1019.6 |
| 20260831170028 | 68 | 122 | 6.0 | 13.0 | 0.00 | 0.00 | 0.00 | 61 | 1019.8 |
| 20260831164525 | 67 | 117 | 7.0 | 13.0 | 0.00 | 0.00 | 0.00 | 64 | 1019.9 |
| 20260831163027 | 67 | 114 | 9.0 | 12.0 | 0.00 | 0.00 | 0.00 | 62 | 1020.0 |
| 20260831161537 | 67 | 122 | 9.0 | 12.0 | 0.00 | 0.00 | 0.00 | 61 | 1020.2 |
| 20260831160024 | 67 | 121 | 8.0 | 12.0 | 0.00 | 0.00 | 0.00 | 62 | 1020.4 |
| 20260831154512 | 67 | 127 | 7.0 | 12.0 | 0.00 | 0.00 | 0.00 | 58 | 1020.5 |
| 20260831153012 | 68 | 136 | 7.0 | 10.0 | 0.00 | 0.00 | 0.00 | 60 | 1020.5 |
| 20260831151511 | 68 | 167 | 5.0 | 9.0 | 0.00 | 0.00 | 0.00 | 57 | 1020.6 |
| 20260831150012 | 68 | 149 | 4.0 | 9.0 | 0.00 | 0.00 | 0.00 | 58 | 1020.6 |
| 20260831144510 | 68 | 126 | 6.0 | 11.0 | 0.00 | 0.00 | 0.00 | 61 | 1020.5 |
| 20260831143010 | 68 | 164 | 7.0 | 10.0 | 0.00 | 0.00 | 0.00 | 58 | 1020.5 |
| 20260831141509 | 68 | 114 | 7.0 | 10.0 | 0.00 | 0.00 | 0.00 | 53 | 1020.5 |
| 20260831140008 | 68 | 121 | 8.0 | 10.0 | 0.00 | 0.00 | 0.00 | 55 | 1020.5 |
| 20260831134559 | 68 | 59 | 3.0 | 9.0 | 0.00 | 0.00 | 0.00 | 56 | 1020.5 |
| 20260831133050 | 68 | 84 | 4.0 | 8.0 | 0.00 | 0.00 | 0.00 | 56 | 1020.5 |
| 20260831131550 | 67 | 85 | 4.0 | 8.0 | 0.00 | 0.00 | 0.00 | 58 | 1020.3 |
| 20260831130039 | 67 | 85 | 5.0 | 9.0 | 0.00 | 0.00 | 0.00 | 62 | 1020.1 |
| 20260831124509 | 66 | 53 | 2.0 | 7.0 | 0.00 | 0.00 | 0.00 | 67 | 1020.1 |
| 20260831123012 | 65 | 39 | 6.0 | 9.0 | 0.00 | 0.00 | 0.00 | 69 | 1019.8 |
| 20260831121556 | 65 | 20 | 3.0 | 7.0 | 0.00 | 0.00 | 0.00 | 72 | 1019.8 |
| 20260831120055 | 64 | 63 | 4.0 | 6.0 | 0.00 | 0.00 | 0.00 | 74 | 1019.8 |
| 20260831114554 | 64 | 44 | 2.0 | 5.0 | 0.00 | 0.00 | 0.00 | 77 | 1019.6 |
| 20260831113056 | 64 | 76 | 1.0 | 2.0 | 0.00 | 0.00 | 0.00 | 80 | 1019.8 |
| 20260831111555 | 63 | 19 | 2.0 | 4.0 | 0.00 | 0.00 | 0.00 | 81 | 1019.6 |
| 20260831110052 | 63 | 345 | 1.0 | 4.0 | 0.00 | 0.00 | 0.00 | 84 | 1019.8 |
| 20260831104551 | 62 | 312 | 1.0 | 3.0 | 0.00 | 0.00 | 0.00 | 86 | 1019.6 |
| 20260831103051 | 62 | 325 | 1.0 | 5.0 | 0.00 | 0.00 | 0.00 | 87 | 1019.4 |
| 20260831101529 | 62 | 355 | 1.0 | 4.0 | 0.00 | 0.00 | 0.00 | 89 | 1019.1 |
| 20260831100039 | 62 | 355 | 3.0 | 4.0 | 0.00 | 0.00 | 0.00 | 88 | 1019.0 |
| 20260831094525 | 62 | 346 | 4.0 | 7.0 | 0.00 | 0.00 | 0.00 | 88 | 1018.8 |
| 20260831093023 | 62 | 355 | 3.0 | 5.0 | 0.00 | 0.00 | 0.00 | 88 | 1018.7 |
| 20260831091548 | 63 | 350 | 3.0 | 5.0 | 0.00 | 0.00 | 0.00 | 89 | 1018.5 |
| 20260831090057 | 63 | 350 | 3.0 | 6.0 | 0.00 | 0.00 | 0.00 | 90 | 1018.4 |
| 20260831084534 | 63 | 9 | 4.0 | 5.0 | 0.00 | 0.00 | 0.00 | 90 | 1018.3 |
| 20260831083043 | 62 | 360 | 3.0 | 5.0 | 0.00 | 0.00 | 0.00 | 92 | 1018.3 |
| 20260831081532 | 62 | 321 | 3.0 | 4.0 | 0.00 | 0.00 | 0.00 | 92 | 1018.1 |
| 20260831080047 | 62 | 323 | 1.0 | 2.0 | 0.00 | 0.00 | 0.00 | 92 | 1018.0 |
| 20260831074530 | 62 | 342 | 2.0 | 3.0 | 0.00 | 0.00 | 0.00 | 92 | 1017.8 |
| 20260831073027 | 63 | 54 | 0.0 | 1.0 | 0.00 | 0.00 | 0.00 | 90 | 1017.6 |
| 20260831071540 | 64 | 273 | 0.0 | 2.0 | 0.00 | 0.00 | 0.00 | 89 | 1017.6 |
| 20260831070021 | 64 | 273 | 0.0 | 2.0 | 0.00 | 0.00 | 0.00 | 88 | 1017.5 |
| 20260831064508 | 65 | 273 | 0.0 | 2.0 | 0.00 | 0.00 | 0.00 | 87 | 1017.4 |
| 20260831063007 | 66 | 314 | 0.0 | 1.0 | 0.00 | 0.00 | 0.00 | 85 | 1017.4 |
| 20260831061501 | 67 | 314 | 0.0 | 2.0 | 0.00 | 0.00 | 0.00 | 85 | 1017.3 |
| 20260831060059 | 67 | 332 | 1.0 | 2.0 | 0.00 | 0.00 | 0.00 | 84 | 1017.1 |
| 20260831054556 | 67 | 350 | 1.0 | 4.0 | 0.00 | 0.00 | 0.00 | 83 | 1017.0 |
| 20260831053126 | 68 | 315 | 3.0 | 5.0 | 0.00 | 0.00 | 0.00 | 82 | 1016.9 |
| 20260831051551 | 68 | 355 | 4.0 | 6.0 | 0.00 | 0.00 | 0.00 | 81 | 1016.9 |
| 20260831050049 | 69 | 36 | 3.0 | 7.0 | 0.00 | 0.00 | 0.00 | 79 | 1016.8 |
| 20260831044558 | 70 | 336 | 5.0 | 10.0 | 0.00 | 0.00 | 0.00 | 78 | 1016.7 |
| 20260831043025 | 70 | 360 | 5.0 | 10.0 | 0.00 | 0.00 | 0.00 | 78 | 1016.5 |
| 20260831041518 | 71 | 343 | 7.0 | 12.0 | 0.00 | 0.00 | 0.00 | 77 | 1016.3 |
| 20260831040014 | 71 | 329 | 4.0 | 10.0 | 0.00 | 0.00 | 0.00 | 77 | 1016.1 |
| 20260831034508 | 71 | 360 | 3.0 | 7.0 | 0.00 | 0.00 | 0.00 | 76 | 1016.2 |
| 20260831033013 | 72 | 309 | 3.0 | 11.0 | 0.00 | 0.00 | 0.00 | 75 | 1016.3 |
| 20260831031503 | 72 | 345 | 5.0 | 8.0 | 0.00 | 0.00 | 0.00 | 72 | 1016.4 |
| 20260831030004 | 73 | 333 | 7.0 | 15.0 | 0.00 | 0.00 | 0.00 | 72 | 1016.4 |
| 20260831024559 | 74 | 313 | 7.0 | 12.0 | 0.00 | 0.00 | 0.00 | 73 | 1016.4 |
| 20260831023056 | 74 | 261 | 2.0 | 9.0 | 0.00 | 0.00 | 0.00 | 72 | 1016.2 |
| 20260831021543 | 74 | 296 | 3.0 | 12.0 | 0.00 | 0.00 | 0.00 | 71 | 1016.0 |
| 20260831020042 | 74 | 247 | 3.0 | 7.0 | 0.00 | 0.00 | 0.00 | 71 | 1016.0 |
| 20260831014541 | 74 | 240 | 4.0 | 6.0 | 0.00 | 0.00 | 0.00 | 70 | 1016.0 |
| 20260831013038 | 74 | 239 | 3.0 | 6.0 | 0.00 | 0.00 | 0.00 | 70 | 1015.7 |
| 20260831011538 | 74 | 257 | 3.0 | 7.0 | 0.00 | 0.00 | 0.00 | 68 | 1015.5 |
| 20260831010054 | 75 | 248 | 4.0 | 7.0 | 0.00 | 0.00 | 0.00 | 65 | 1015.4 |
| 20260831004532 | 75 | 257 | 3.0 | 8.0 | 0.00 | 0.00 | 0.00 | 63 | 1015.3 |
| 20260831003034 | 76 | 259 | 2.0 | 6.0 | 0.00 | 0.00 | 0.00 | 61 | 1015.2 |
| 20260831001518 | 76 | 250 | 4.0 | 9.0 | 0.00 | 0.00 | 0.00 | 60 | 1015.0 |
| 20260831000021 | 76 | 211 | 2.0 | 5.0 | 0.00 | 0.00 | 0.00 | 59 | 1014.8 |
| 20260830234515 | 77 | 260 | 2.0 | 7.0 | 0.00 | 0.00 | 0.00 | 58 | 1014.6 |
| 20260830233014 | 77 | 360 | 3.0 | 5.0 | 0.00 | 0.00 | 0.00 | 58 | 1014.7 |
| 20260830231516 | 77 | 246 | 3.0 | 5.0 | 0.00 | 0.00 | 0.00 | 57 | 1014.6 |
| 20260830230011 | 77 | 214 | 3.0 | 7.0 | 0.00 | 0.00 | 0.00 | 57 | 1014.7 |